EDDH Weather Reports


time (UTC)temp
C
wind
direction
speed
KPH
gust
KPH
rain 1hr
cm
rain 24hr
cm
rain mn
cm
humidity
%
barometer
mb
20260902101002 18 220 17.7 0.0 0.00 0.00 0.00 70 1018.0
20260902081002 16 220 14.5 0.0 0.00 0.00 0.00 80 1018.0
20260902061002 12 220 6.4 0.0 0.00 0.00 0.00 95 1018.0
20260902051002 11 220 6.4 0.0 0.00 0.00 0.00 95 1018.0
20260902041002 11 230 6.4 0.0 0.00 0.00 0.00 95 1018.0
20260902031001 12 230 8.0 0.0 0.00 0.00 0.00 90 1018.0
20260902021002 12 230 8.0 0.0 0.00 0.00 0.00 90 1019.0
20260902011002 12 230 8.0 0.0 0.00 0.00 0.00 90 1018.0
20260902001002 12 230 6.4 0.0 0.00 0.00 0.00 90 1018.0
20260901221001 15 250 8.0 0.0 0.00 0.00 0.00 85 1019.0
20260901211002 15 270 9.7 0.0 0.00 0.00 0.00 80 1018.0
20260901201002 16 270 11.3 0.0 0.00 0.00 0.00 75 1018.0
20260901191003 16 280 9.7 0.0 0.00 0.00 0.00 75 1018.0
20260901181002 17 280 12.9 0.0 0.00 0.00 0.00 70 1017.0
20260901171002 18 280 17.7 0.0 0.00 0.00 0.00 65 1017.0
20260901161002 18 270 19.3 0.0 0.00 0.00 0.00 70 1017.0
20260901151003 17 260 12.9 0.0 0.00 0.00 0.00 80 1017.0
20260901141001 17 290 19.3 0.0 0.00 0.00 0.00 80 1017.0
20260901131003 17 290 17.7 0.0 0.00 0.00 0.00 90 1016.0
20260901121002 17 330 17.7 0.0 0.00 0.00 0.00 90 1016.0